Location: Ward Pound Ridge Reservation
(41.2500°N, 73.6000°W)
Time: 12:42:20
(UTC-04:00)

Vanguard 2 - Visible Passes

Search period start: 16 July 2018 00:00
Search period end: 26 July 2018 00:00
Orbit: 553 x 2939 km, 32.9° (Epoch: 16 July)

Date Brightness Start Highest point End Pass type
(mag) Time Alt. Az. Time Alt. Az. Time Alt. Az.
16 Jul 10.0 00:26:01 10° W 00:42:39 53° SSW 00:48:34 36° SSE visible
16 Jul 10.4 02:40:31 10° W 02:49:51 25° SW 02:49:51 25° SW visible
16 Jul 10.2 22:31:36 10° W 22:49:11 64° S 23:02:48 14° ESE visible
17 Jul 10.0 00:44:23 10° W 01:00:29 47° SSW 01:04:06 41° S visible
17 Jul 10.8 02:59:53 10° W 03:05:24 18° WSW 03:05:24 18° WSW visible
17 Jul 10.5 20:38:37 10° WSW 20:54:59 61° SSE 21:11:36 10° E visible
17 Jul 10.2 22:49:47 10° W 23:07:18 62° S 23:18:30 22° ESE visible
18 Jul 10.1 01:02:51 10° W 01:18:11 41° SSW 01:19:50 40° SSW visible
18 Jul 11.2 03:20:19 10° WSW 03:21:08 11° WSW 03:21:08 11° WSW visible
18 Jul 10.4 20:56:33 10° WSW 21:13:06 64° S 21:29:44 10° E visible
18 Jul 10.2 23:08:00 10° W 23:25:20 58° SSW 23:34:20 29° SE visible
19 Jul 10.4 01:21:29 10° W 01:35:39 34° SW 01:35:39 34° SW visible
19 Jul 10.4 21:14:35 10° WSW 21:31:15 65° S 21:47:49 10° ESE visible
19 Jul 10.3 23:26:17 10° W 23:43:17 53° SSW 23:50:15 36° SSE visible
20 Jul 10.7 01:40:24 10° W 01:51:34 27° SW 01:51:34 27° SW visible
20 Jul 10.4 21:32:40 10° W 21:49:24 64° S 22:04:53 13° ESE visible
20 Jul 10.3 23:44:38 10° W 00:01:09 47° SSW 00:06:14 39° S visible
21 Jul 11.0 01:59:50 10° W 02:07:33 20° WSW 02:07:33 20° WSW visible
21 Jul 10.4 21:50:49 10° W 22:07:31 61° S 22:20:55 19° ESE visible
22 Jul 10.4 00:03:05 10° W 00:18:53 41° SSW 00:22:16 37° S visible
22 Jul 11.3 02:20:20 10° WSW 02:23:36 13° WSW 02:23:36 13° WSW visible
22 Jul 10.4 22:09:00 10° W 22:25:35 57° SSW 22:37:00 24° SE visible
23 Jul 10.6 00:21:45 10° W 00:36:30 34° SW 00:38:21 33° SSW visible
23 Jul 10.5 22:27:15 10° W 22:43:33 52° SSW 22:53:08 29° SE visible
24 Jul 10.8 00:40:43 10° W 00:54:01 27° SW 00:54:29 27° SW visible
24 Jul 10.5 20:34:32 10° W 20:49:35 63° S 21:07:01 10° ESE visible
24 Jul 10.6 22:45:34 10° W 23:01:27 46° SSW 23:09:19 31° SSE visible
25 Jul 11.1 01:00:16 10° W 01:10:40 21° SW 01:10:40 21° SW visible
25 Jul 10.5 20:52:39 10° W 21:07:42 60° SSW 21:24:12 12° ESE visible
25 Jul 10.7 23:04:03 10° W 23:19:14 39° SSW 23:25:33 31° S visible
